Aérodrome :
LOGIN :

S'inscrire | Disclaimer

   EN    FR    IT 

 










Légende :    VFR   VFR Marginal   IFR   IFR Intensif   IFR Très Intensif
Visi : 
Plafond : 
>= 8 km
>= 3000ft
5 à 8 km
1000 à 3000 ft
1500m à 5 km
500 à 1000 ft
800 à 1500m
200 à 500 ft
< 800m
< 200 ft
Symboles :   Orages  Brouillard  Fortes neiges  Fortes précipitations  Vent > 20 kt
SIGMETs :   Divers  Orages  Givrage  Turbulence  Onde Orograph.  Cendres Volcan.







- Altitude de l'aérodrome : 266 ft
- Code IATA : NCL
- Voir les cartes d'approche


EGNT - Newcastle

DERNIER METAR :
  • 180450Z 19001KT CAVOK 08/07 Q1016

METARs EXPIRÉS :
  • 180420Z 25001KT CAVOK 09/08 Q1016
  • 180350Z 24001KT CAVOK 09/08 Q1016
  • 180320Z VRB03KT CAVOK 09/07 Q1016
  • 180250Z 22003KT CAVOK 10/08 Q1016
  • 180220Z 24004KT CAVOK 10/08 Q1016

TAF TAF EGNT
Valide du 18 à 00h jusqu'au 19 à 00h UTC


172253Z 1800/1824 26005KT 9999 FEW040
PROB30
TEMPO 1810/1818 8000 -SHRA
ATIS : +44 191 214 3400
Pas de NOTAMs connus pour ce terrain.



MET'MAP, la Météo Aéronautique d'un coup d'oeil ! - Copyright ORBIFLY Décembre 2007 - Disclaimer

ORBIFLY MET'MAP TEAM :

Programmation & Développement : Alexandra Zaïnal
Conception & Développement : Baudouin d'Aumeries
Co-Programmation & Développement : Marc-Olivier Méhu
Soutien technique & logistique : Manuel Goepfert

Contact : metmap@orbifly.com




SOURCES & CREDITS :

   NOAA